Find Starlink 3798

NORAD ID: 52371 Int'l Des: 2022-045 Owner: SPXS Country: US Constellation: starlink operational
LEOCIRCULAR

实时位置

正在加载3D地球...

关于 Starlink 3798

正在加载描述...

即将过境

Passes for default location (London). Set your location on the main map for personalized predictions.

高度历史

Loading altitude history...

两行轨道根数

1 52371U 22045AS 26105.92876518 .00000176 00000-0 29136-4 0 9990
2 52371 53.2204 21.9592 0001575 85.2965 274.8207 15.08838690221538
Epoch: Apr 15, 2026 • Age: 8 hours

当前状态

高度 545.5 km
速度 7.59 km/s
星下点 -19.45°S, 68.9°E
发射日期 Apr 29, 2022
运行时间 3.9 years
类型 internet

技术详情

分类 Payload
质量 297.00 kg
干质量 275.00 kg
总质量 297.00 kg
长度 0.20 m
直径 2.80 m
跨度 9.00 m
形状 Box + pan
制造商 SPXS
平台类型 Starlink
阶段状态 In Orbit
所有者/国家 SPXS/US

Most Searched